Regional Weather Roundup
Issued by NWS

Home | Current Version | Previous Version | Text Only | Print | Product List | Glossary Off
Versions: 1 2 3 4 5 6 7 8 9 10 11 12 13 14 15 16 17 18 19 20 21 22 23 24 25 26 27 28 29 30 31 32 33 34 35 36 37 38 39 40 41 42 43 44 45 46 47 48 49 50

000
ASUS43 KLOT 250200
RWRIL

ILLINOIS REGIONAL WEATHER ROUNDUP
NATIONAL WEATHER SERVICE CHICAGO/ROMEOVILLE IL
900 PM CDT FRI OCT 24 2014

NOTE: "FAIR" INDICATES FEW OR NO CLOUDS BELOW 12,000 FEET WITH NO
SIGNIFICANT WEATHER AND/OR OBSTRUCTIONS TO VISIBILITY.

* THESE STATIONS ARE NOT UNDER NWS QUALITY CONTROL. THEY ALSO MAY NOT
  REPORT WEATHER SUCH AS PRECIPITATION OR FOG.

ILZ001-002-007-009-015-016-024-250300-
NORTHWEST ILLINOIS

CITY           SKY/WX    TMP DP  RH WIND       PRES   REMARKS
MOLINE         CLOUDY    60  56  86 W6        29.95R FOG
STERLING*      CLOUDY    61  48  63 CALM      29.96R
$$

ILZ003-004-008-010-011-017-018-250300-
NORTH CENTRAL ILLINOIS

CITY           SKY/WX    TMP DP  RH WIND       PRES   REMARKS
ROCKFORD       CLOUDY    58  48  69 S5        29.97R
$$

ILZ005-006-012>014-019>023-250300-
NORTHEAST ILLINOIS

CITY           SKY/WX    TMP DP  RH WIND       PRES   REMARKS
CHICAGO-OHARE  MOCLDY    60  45  57 S8        29.94F
CHICAGO-MIDWAY CLOUDY    63  47  55 S7        29.94F
AURORA         CLOUDY    59  47  64 SW6       29.95F
WAUKEGAN       CLOUDY    51  49  92 CALM      29.92F FOG
DUPAGE AIRPORT CLOUDY    59  48  67 SW13      29.94F
WHEELING       MOCLDY    58  47  66 S5        29.94F
NORTHERLY ISL    N/A     58  51  78 S5          N/A
$$

LMZ740>746-250300-
SOUTHERN LAKE MICHIGAN

STATION/POSITION SKY/WX   TEMP    WIND        PRES    VSBY  WAVE
                          AIR SEA DIR/SP/G                  HT/PER
                          (F)     (DEG/KT/KT) (MB)    (MI)  (FT/S)
SOUTHERN BUOY              54 54  130/  6/  6 1014.4F         0
WAUKEGAN HARBOR            54     190/  2/  3   N/A
HARRISON CRIB              60     160/  9/ 11   N/A
BURNHAM HARBOR             58     170/  3/  6   N/A
CALUMET HARBOR             62     170/  3/  4 1013.2F
MICHIGAN CITY              58     110/  7/  7   N/A
$$

ILZ025>027-034>036-040-047-049-050-058-095>099-250300-
WEST-CENTRAL ILLINOIS

CITY           SKY/WX    TMP DP  RH WIND       PRES   REMARKS
QUINCY         MOCLDY    63  56  78 S9        29.95R
$$

ILZ028>032-037-038-041>044-048-051>054-059>061-250300-
CENTRAL ILLINOIS

CITY           SKY/WX    TMP DP  RH WIND       PRES   REMARKS
DECATUR        CLEAR     57  53  86 S8        30.00F
PEORIA         CLOUDY    63  50  62 S7        29.97S
SPRINGFIELD    PTCLDY    62  51  67 S7        29.97F
TAYLORVILLE    NOT AVBL
$$

ILZ033-039-045-046-055>057-062-063-250300-
EAST-CENTRAL ILLINOIS

CITY           SKY/WX    TMP DP  RH WIND       PRES   REMARKS
CHAMPAIGN      MOCLDY    52  51  97 S8        30.00F FOG
MATTOON        PTCLDY    56  52  86 S6        30.00F
$$

ILZ079-100>102-250300-
SOUTHWEST ILLINOIS

CITY           SKY/WX    TMP DP  RH WIND       PRES   REMARKS
BELLEVILLE     PTCLDY    59  51  74 S3        30.01R
CAHOKIA*       MOCLDY    62  51  67 S3        30.01R
$$

ILZ064>066-069>071-074>076-080>082-084>086-088>090-092>094-250300-
SOUTH-CENTRAL ILLINOIS

CITY           SKY/WX    TMP DP  RH WIND       PRES   REMARKS
CARBONDALE     CLEAR     53  50  89 S5        30.04S
MT. VERNON     CLEAR     48  46  93 CALM      30.04S
$$

ILZ067-068-072-073-078-083-087-091-250300-
SOUTHEAST ILLINOIS

CITY           SKY/WX    TMP DP  RH WIND       PRES   REMARKS
LAWRENCEVILLE  CLEAR     54  50  86 S3        30.04R
$$

ABBREVIATIONS USED IN REMARKS
   TC - TEMPERATURE IN CELSIUS
  WCI - WIND CHILL INDEX
   HX - HEAT INDEX
  VSB - VISIBILITY
$$




USA.gov is the U.S. government's official web portal to all federal, state and local government web resources and services.